Time,TemperatureF,DewpointF,PressureIn,WindDirection,WindDirectionDegrees,WindSpeedMPH,WindSpeedGustMPH,Humidity,HourlyPrecipIn,Conditions,Clouds,dailyrainin,SolarRadiationWatts/m^2,SoftwareType,DateUTC
2013-10-17 00:01:00,36.6,33.1,30.02,North,-999,11.0,20.0,87,0.00,,,0.00,0.00,VWS V14.01,2013-10-17 06:01:00,
2013-10-17 00:06:00,36.3,33.1,30.02,North,-999,11.0,21.0,88,0.00,,,0.00,0.00,VWS V14.01,2013-10-17 06:06:00,
2013-10-17 00:11:00,36.2,33.0,30.02,North,-999,12.0,20.0,88,0.00,,,0.00,0.00,VWS V14.01,2013-10-17 06:11:00,
2013-10-17 00:16:00,36.1,33.2,30.02,North,-999,9.0,20.0,89,0.00,,,0.00,0.00,VWS V14.01,2013-10-17 06:16:00,
2013-10-17 00:21:00,36.0,33.1,30.02,North,-999,13.0,18.0,89,0.00,,,0.00,0.00,VWS V14.01,2013-10-17 06:21:00,
2013-10-17 00:26:00,35.8,32.6,30.03,North,-999,11.0,20.0,88,0.00,,,0.00,0.00,VWS V14.01,2013-10-17 06:26:00,
2013-10-17 00:31:00,35.7,32.8,30.03,North,-999,12.0,19.0,89,0.00,,,0.00,0.00,VWS V14.01,2013-10-17 06:31:00,
2013-10-17 00:35:00,35.6,32.4,30.03,North,-999,13.0,21.0,88,0.00,,,0.00,0.00,VWS V14.01,2013-10-17 06:35:00,
2013-10-17 00:40:00,35.5,32.3,30.03,North,-999,17.0,21.0,88,0.00,,,0.00,0.00,VWS V14.01,2013-10-17 06:40:00,
2013-10-17 00:45:00,35.3,32.4,30.03,North,-999,15.0,21.0,89,0.00,,,0.00,0.00,VWS V14.01,2013-10-17 06:45:00,
2013-10-17 00:50:00,35.1,32.2,30.03,North,-999,14.0,19.0,89,0.00,,,0.00,0.00,VWS V14.01,2013-10-17 06:50:00,
2013-10-17 00:55:00,35.1,32.2,30.04,North,-999,13.0,20.0,89,0.00,,,0.00,0.00,VWS V14.01,2013-10-17 06:55:00,
2013-10-17 01:00:00,35.0,32.1,30.03,North,-999,13.0,19.0,89,0.00,,,0.00,0.00,VWS V14.01,2013-10-17 07:00:00,
2013-10-17 01:05:00,34.9,32.0,30.04,North,-999,10.0,20.0,89,0.00,,,0.00,0.00,VWS V14.01,2013-10-17 07:05:00,
2013-10-17 01:10:00,34.7,31.8,30.04,North,-999,13.0,24.0,89,0.00,,,0.00,0.00,VWS V14.01,2013-10-17 07:10:00,
2013-10-17 01:15:00,34.7,31.8,30.04,North,-999,14.0,24.0,89,0.00,,,0.00,0.00,VWS V14.01,2013-10-17 07:15:00,
2013-10-17 01:20:00,34.6,32.0,30.04,North,-999,15.0,21.0,90,0.00,,,0.00,0.00,VWS V14.01,2013-10-17 07:20:00,
2013-10-17 01:25:00,34.5,31.9,30.04,North,-999,16.0,21.0,90,0.00,,,0.00,0.00,VWS V14.01,2013-10-17 07:25:00,
2013-10-17 01:30:00,34.4,31.8,30.04,North,-999,14.0,21.0,90,0.00,,,0.00,0.00,VWS V14.01,2013-10-17 07:30:00,
2013-10-17 01:35:00,34.5,31.9,30.04,North,-999,7.0,21.0,90,0.00,,,0.00,0.00,VWS V14.01,2013-10-17 07:35:00,
2013-10-17 01:40:00,34.5,31.9,30.04,North,-999,12.0,18.0,90,0.00,,,0.00,0.00,VWS V14.01,2013-10-17 07:40:00,
2013-10-17 01:45:00,34.6,32.0,30.04,North,-999,12.0,18.0,90,0.00,,,0.00,0.00,VWS V14.01,2013-10-17 07:45:00,
2013-10-17 01:50:00,34.6,31.7,30.04,North,-999,11.0,21.0,89,0.00,,,0.00,0.00,VWS V14.01,2013-10-17 07:50:00,
2013-10-17 01:55:00,34.7,31.8,30.04,North,-999,16.0,21.0,89,0.00,,,0.00,0.00,VWS V14.01,2013-10-17 07:55:00,
2013-10-17 02:00:00,34.7,31.8,30.04,North,-999,13.0,17.0,89,0.00,,,0.00,0.00,VWS V14.01,2013-10-17 08:00:00,
2013-10-17 02:05:00,34.7,31.8,30.04,North,-999,16.0,19.0,89,0.00,,,0.00,0.00,VWS V14.01,2013-10-17 08:05:00,
2013-10-17 02:08:00,34.7,31.8,30.04,North,-999,11.0,13.0,89,0.00,,,0.00,0.00,VWS V14.01,2013-10-17 08:08:00,
2013-10-17 02:13:00,34.8,31.9,30.04,North,-999,11.0,19.0,89,0.00,,,0.00,0.00,VWS V14.01,2013-10-17 08:13:00,
2013-10-17 02:18:00,34.7,31.8,30.04,North,-999,15.0,18.0,89,0.00,,,0.00,0.00,VWS V14.01,2013-10-17 08:18:00,
2013-10-17 02:23:00,34.7,31.5,30.05,North,-999,11.0,18.0,88,0.00,,,0.00,0.00,VWS V14.01,2013-10-17 08:23:00,
2013-10-17 02:28:00,34.6,31.4,30.04,North,-999,16.0,16.0,88,0.00,,,0.00,0.00,VWS V14.01,2013-10-17 08:28:00,
2013-10-17 02:33:00,34.6,31.4,30.04,North,-999,16.0,20.0,88,0.00,,,0.00,0.00,VWS V14.01,2013-10-17 08:33:00,
2013-10-17 02:38:00,34.6,31.4,30.05,North,-999,14.0,17.0,88,0.00,,,0.00,0.00,VWS V14.01,2013-10-17 08:38:00,
2013-10-17 02:43:00,34.5,31.3,30.05,North,-999,12.0,17.0,88,0.00,,,0.00,0.00,VWS V14.01,2013-10-17 08:43:00,
2013-10-17 02:48:00,34.4,31.2,30.05,North,-999,11.0,12.0,88,0.00,,,0.00,0.00,VWS V14.01,2013-10-17 08:48:00,
2013-10-17 02:53:00,34.3,31.4,30.05,North,-999,10.0,16.0,89,0.00,,,0.00,0.00,VWS V14.01,2013-10-17 08:53:00,
2013-10-17 02:57:00,34.2,31.3,30.05,North,-999,12.0,15.0,89,0.00,,,0.00,0.00,VWS V14.01,2013-10-17 08:57:00,
2013-10-17 03:02:00,34.2,31.3,30.04,North,-999,11.0,15.0,89,0.00,,,0.00,0.00,VWS V14.01,2013-10-17 09:02:00,
2013-10-17 03:07:00,34.2,31.3,30.04,North,-999,14.0,14.0,89,0.00,,,0.00,0.00,VWS V14.01,2013-10-17 09:07:00,
2013-10-17 03:12:00,34.1,31.2,30.04,North,-999,11.0,16.0,89,0.00,,,0.00,0.00,VWS V14.01,2013-10-17 09:12:00,
2013-10-17 03:17:00,34.1,31.2,30.04,North,-999,13.0,13.0,89,0.00,,,0.00,0.00,VWS V14.01,2013-10-17 09:17:00,
2013-10-17 03:22:00,34.1,31.2,30.04,North,-999,7.0,14.0,89,0.00,,,0.00,0.00,VWS V14.01,2013-10-17 09:22:00,
2013-10-17 03:27:00,34.1,31.2,30.04,North,-999,12.0,14.0,89,0.00,,,0.00,0.00,VWS V14.01,2013-10-17 09:27:00,
2013-10-17 03:32:00,34.1,31.2,30.04,North,-999,11.0,14.0,89,0.00,,,0.00,0.00,VWS V14.01,2013-10-17 09:32:00,
2013-10-17 03:37:00,34.1,31.2,30.04,North,-999,6.0,12.0,89,0.00,,,0.00,0.00,VWS V14.01,2013-10-17 09:37:00,
2013-10-17 03:42:00,34.1,30.9,30.04,North,-999,7.0,15.0,88,0.00,,,0.00,0.00,VWS V14.01,2013-10-17 09:42:00,
2013-10-17 03:47:00,34.1,30.9,30.03,North,-999,12.0,12.0,88,0.00,,,0.00,0.00,VWS V14.01,2013-10-17 09:47:00,
2013-10-17 03:52:00,34.1,30.9,30.03,North,-999,5.0,13.0,88,0.00,,,0.00,0.00,VWS V14.01,2013-10-17 09:52:00,
2013-10-17 03:57:00,34.1,30.9,30.03,North,-999,12.0,12.0,88,0.00,,,0.00,0.00,VWS V14.01,2013-10-17 09:57:00,
2013-10-17 04:02:00,34.2,30.7,30.03,North,-999,10.0,14.0,87,0.00,,,0.00,0.00,VWS V14.01,2013-10-17 10:02:00,
2013-10-17 04:07:00,34.3,30.6,30.03,North,-999,11.0,12.0,86,0.00,,,0.00,0.00,VWS V14.01,2013-10-17 10:07:00,
2013-10-17 04:12:00,34.4,30.6,30.03,North,-999,9.0,15.0,86,0.00,,,0.00,0.00,VWS V14.01,2013-10-17 10:12:00,
2013-10-17 04:17:00,34.3,30.6,30.03,North,-999,7.0,13.0,86,0.00,,,0.00,0.00,VWS V14.01,2013-10-17 10:17:00,
2013-10-17 04:22:00,34.4,30.4,30.03,North,-999,13.0,13.0,85,0.00,,,0.00,0.00,VWS V14.01,2013-10-17 10:22:00,
2013-10-17 04:27:00,34.3,30.6,30.03,North,-999,6.0,8.0,86,0.00,,,0.00,0.00,VWS V14.01,2013-10-17 10:27:00,
2013-10-17 04:32:00,34.2,30.5,30.03,North,-999,7.0,11.0,86,0.00,,,0.00,0.00,VWS V14.01,2013-10-17 10:32:00,
2013-10-17 04:37:00,34.3,30.6,30.04,North,-999,5.0,7.0,86,0.00,,,0.00,0.00,VWS V14.01,2013-10-17 10:37:00,
2013-10-17 04:42:00,34.3,30.3,30.03,North,-999,6.0,9.0,85,0.00,,,0.00,0.00,VWS V14.01,2013-10-17 10:42:00,
2013-10-17 04:47:00,34.4,30.4,30.03,North,-999,9.0,9.0,85,0.00,,,0.00,0.00,VWS V14.01,2013-10-17 10:47:00,
2013-10-17 04:52:00,34.4,30.4,30.03,North,-999,4.0,9.0,85,0.00,,,0.00,0.00,VWS V14.01,2013-10-17 10:52:00,
2013-10-17 04:57:00,34.5,30.5,30.03,North,-999,8.0,10.0,85,0.00,,,0.00,0.00,VWS V14.01,2013-10-17 10:57:00,
2013-10-17 05:02:00,34.6,30.3,30.03,North,-999,7.0,10.0,84,0.00,,,0.00,0.00,VWS V14.01,2013-10-17 11:02:00,
2013-10-17 05:07:00,34.6,30.3,30.03,North,-999,4.0,7.0,84,0.00,,,0.00,0.00,VWS V14.01,2013-10-17 11:07:00,
2013-10-17 05:12:00,34.5,30.5,30.03,North,-999,5.0,9.0,85,0.00,,,0.00,0.00,VWS V14.01,2013-10-17 11:12:00,
2013-10-17 05:17:00,34.4,30.4,30.03,North,-999,6.0,7.0,85,0.00,,,0.00,0.00,VWS V14.01,2013-10-17 11:17:00,
2013-10-17 05:22:00,34.4,30.4,30.03,North,-999,3.0,9.0,85,0.00,,,0.00,0.00,VWS V14.01,2013-10-17 11:22:00,
2013-10-17 05:27:00,34.4,30.4,30.03,North,-999,3.0,5.0,85,0.00,,,0.00,0.00,VWS V14.01,2013-10-17 11:27:00,
2013-10-17 05:32:00,34.4,30.6,30.03,North,-999,5.0,6.0,86,0.00,,,0.00,0.00,VWS V14.01,2013-10-17 11:32:00,
2013-10-17 05:37:00,34.4,30.6,30.03,North,-999,1.0,2.0,86,0.00,,,0.00,0.00,VWS V14.01,2013-10-17 11:37:00,
2013-10-17 05:42:00,34.4,30.6,30.03,North,-999,2.0,2.0,86,0.00,,,0.00,0.00,VWS V14.01,2013-10-17 11:42:00,
2013-10-17 05:47:00,34.4,30.4,30.03,North,-999,0.0,0.0,85,0.00,,,0.00,0.00,VWS V14.01,2013-10-17 11:47:00,
2013-10-17 05:52:00,34.4,30.4,30.03,North,-999,0.0,2.0,85,0.00,,,0.00,0.00,VWS V14.01,2013-10-17 11:52:00,
2013-10-17 05:57:00,34.5,30.5,30.03,North,-999,0.0,0.0,85,0.00,,,0.00,0.00,VWS V14.01,2013-10-17 11:57:00,
2013-10-17 06:02:00,34.5,30.5,30.03,North,-999,0.0,0.0,85,0.00,,,0.00,0.00,VWS V14.01,2013-10-17 12:02:00,
2013-10-17 06:07:00,34.6,30.6,30.03,North,-999,0.0,0.0,85,0.00,,,0.00,0.00,VWS V14.01,2013-10-17 12:07:00,
2013-10-17 06:12:00,34.5,30.8,30.03,North,-999,0.0,0.0,86,0.00,,,0.00,0.00,VWS V14.01,2013-10-17 12:12:00,
2013-10-17 06:17:00,34.4,30.6,30.03,North,-999,2.0,3.0,86,0.00,,,0.00,0.00,VWS V14.01,2013-10-17 12:17:00,
2013-10-17 06:22:00,34.4,30.6,30.03,North,-999,1.0,3.0,86,0.00,,,0.00,0.00,VWS V14.01,2013-10-17 12:22:00,
2013-10-17 06:27:00,34.5,30.5,30.03,North,-999,4.0,6.0,85,0.00,,,0.00,0.00,VWS V14.01,2013-10-17 12:27:00,
2013-10-17 06:32:00,34.5,30.5,30.03,North,-999,3.0,6.0,85,0.00,,,0.00,0.00,VWS V14.01,2013-10-17 12:32:00,
2013-10-17 06:37:00,34.5,30.8,30.03,North,-999,2.0,2.0,86,0.00,,,0.00,0.00,VWS V14.01,2013-10-17 12:37:00,
2013-10-17 06:42:00,34.3,31.1,30.03,North,-999,5.0,7.0,88,0.00,,,0.00,0.00,VWS V14.01,2013-10-17 12:42:00,
2013-10-17 06:47:00,33.9,31.0,30.03,North,-999,9.0,9.0,89,0.00,,,0.00,0.00,VWS V14.01,2013-10-17 12:47:00,
2013-10-17 06:52:00,33.8,30.9,30.03,North,-999,5.0,9.0,89,0.00,,,0.00,0.00,VWS V14.01,2013-10-17 12:52:00,
2013-10-17 06:57:00,33.8,30.9,30.03,North,-999,4.0,5.0,89,0.00,,,0.00,0.00,VWS V14.01,2013-10-17 12:57:00,
2013-10-17 07:02:00,33.8,30.9,30.03,North,-999,5.0,7.0,89,0.00,,,0.00,0.00,VWS V14.01,2013-10-17 13:02:00,
2013-10-17 07:07:00,33.9,31.0,30.03,North,-999,4.0,5.0,89,0.00,,,0.00,0.00,VWS V14.01,2013-10-17 13:07:00,
2013-10-17 07:12:00,34.0,30.8,30.03,North,-999,5.0,6.0,88,0.00,,,0.00,0.00,VWS V14.01,2013-10-17 13:12:00,
2013-10-17 07:17:00,33.9,31.0,30.03,North,-999,6.0,7.0,89,0.00,,,0.00,0.00,VWS V14.01,2013-10-17 13:17:00,
2013-10-17 07:22:00,33.7,30.8,30.03,North,-999,7.0,10.0,89,0.00,,,0.00,0.00,VWS V14.01,2013-10-17 13:22:00,
2013-10-17 07:27:00,33.6,31.0,30.03,North,-999,4.0,6.0,90,0.00,,,0.00,0.00,VWS V14.01,2013-10-17 13:27:00,
2013-10-17 07:32:00,33.7,31.1,30.03,North,-999,5.0,7.0,90,0.00,,,0.00,0.00,VWS V14.01,2013-10-17 13:32:00,
2013-10-17 07:37:00,33.8,30.9,30.03,North,-999,6.0,6.0,89,0.00,,,0.00,5.00,VWS V14.01,2013-10-17 13:37:00,
2013-10-17 07:42:00,33.8,30.9,30.03,North,-999,6.0,7.0,89,0.00,,,0.00,9.00,VWS V14.01,2013-10-17 13:42:00,
2013-10-17 07:47:00,33.9,31.0,30.04,North,-999,4.0,4.0,89,0.00,,,0.00,9.00,VWS V14.01,2013-10-17 13:47:00,
2013-10-17 07:52:00,33.9,31.0,30.04,North,-999,4.0,6.0,89,0.00,,,0.00,7.00,VWS V14.01,2013-10-17 13:52:00,
2013-10-17 07:57:00,33.9,31.0,30.04,North,-999,5.0,6.0,89,0.00,,,0.00,11.00,VWS V14.01,2013-10-17 13:57:00,
2013-10-17 08:02:00,33.9,30.7,30.04,North,-999,2.0,5.0,88,0.00,,,0.00,16.00,VWS V14.01,2013-10-17 14:02:00,
2013-10-17 08:07:00,34.0,31.1,30.04,North,-999,5.0,6.0,89,0.00,,,0.00,18.00,VWS V14.01,2013-10-17 14:07:00,
2013-10-17 08:12:00,34.1,30.9,30.04,North,-999,6.0,7.0,88,0.00,,,0.00,40.00,VWS V14.01,2013-10-17 14:12:00,
2013-10-17 08:17:00,34.1,30.9,30.04,North,-999,3.0,7.0,88,0.00,,,0.00,54.00,VWS V14.01,2013-10-17 14:17:00,
2013-10-17 08:22:00,34.3,31.1,30.04,North,-999,3.0,6.0,88,0.00,,,0.00,69.00,VWS V14.01,2013-10-17 14:22:00,
2013-10-17 08:27:00,34.4,31.2,30.04,North,-999,3.0,7.0,88,0.00,,,0.00,81.00,VWS V14.01,2013-10-17 14:27:00,
2013-10-17 08:32:00,34.7,31.2,30.04,North,-999,5.0,7.0,87,0.00,,,0.00,58.00,VWS V14.01,2013-10-17 14:32:00,
2013-10-17 08:36:00,35.0,31.2,30.05,North,-999,5.0,7.0,86,0.00,,,0.00,46.00,VWS V14.01,2013-10-17 14:36:00,
2013-10-17 08:41:00,35.0,31.2,30.05,North,-999,6.0,7.0,86,0.00,,,0.00,46.00,VWS V14.01,2013-10-17 14:41:00,
2013-10-17 08:46:00,35.0,31.5,30.04,North,-999,8.0,9.0,87,0.00,,,0.00,46.00,VWS V14.01,2013-10-17 14:46:00,
2013-10-17 08:51:00,34.8,31.3,30.04,North,-999,7.0,8.0,87,0.00,,,0.00,37.00,VWS V14.01,2013-10-17 14:51:00,
2013-10-17 08:56:00,34.8,31.3,30.04,North,-999,2.0,8.0,87,0.00,,,0.00,54.00,VWS V14.01,2013-10-17 14:56:00,
2013-10-17 09:01:00,34.8,31.3,30.04,North,-999,5.0,8.0,87,0.00,,,0.00,100.00,VWS V14.01,2013-10-17 15:01:00,
2013-10-17 09:06:00,35.0,31.5,30.04,North,-999,4.0,8.0,87,0.00,,,0.00,113.00,VWS V14.01,2013-10-17 15:06:00,
2013-10-17 09:11:00,35.1,31.6,30.04,North,-999,5.0,7.0,87,0.00,,,0.00,91.00,VWS V14.01,2013-10-17 15:11:00,
2013-10-17 09:16:00,35.2,31.7,30.04,North,-999,5.0,7.0,87,0.00,,,0.00,91.00,VWS V14.01,2013-10-17 15:16:00,
2013-10-17 09:21:00,35.2,31.4,30.04,North,-999,5.0,6.0,86,0.00,,,0.00,114.00,VWS V14.01,2013-10-17 15:21:00,
2013-10-17 09:26:00,35.3,31.5,30.05,North,-999,3.0,6.0,86,0.00,,,0.00,93.00,VWS V14.01,2013-10-17 15:26:00,
2013-10-17 09:31:00,35.3,31.5,30.05,North,-999,5.0,7.0,86,0.00,,,0.00,120.00,VWS V14.01,2013-10-17 15:31:00,
2013-10-17 09:36:00,35.4,31.4,30.04,North,-999,4.0,7.0,85,0.00,,,0.00,139.00,VWS V14.01,2013-10-17 15:36:00,
2013-10-17 09:41:00,35.4,31.4,30.05,North,-999,6.0,6.0,85,0.00,,,0.00,153.00,VWS V14.01,2013-10-17 15:41:00,
2013-10-17 09:46:00,35.6,31.5,30.04,North,-999,3.0,6.0,85,0.00,,,0.00,214.00,VWS V14.01,2013-10-17 15:46:00,
2013-10-17 09:51:00,35.8,31.7,30.04,North,-999,0.0,4.0,85,0.00,,,0.00,197.00,VWS V14.01,2013-10-17 15:51:00,
2013-10-17 09:56:00,36.0,31.4,30.05,North,-999,1.0,5.0,83,0.00,,,0.00,202.00,VWS V14.01,2013-10-17 15:56:00,
2013-10-17 10:01:00,36.1,31.5,30.05,North,-999,0.0,6.0,83,0.00,,,0.00,220.00,VWS V14.01,2013-10-17 16:01:00,
2013-10-17 10:06:00,36.2,31.5,30.05,North,-999,0.0,6.0,83,0.00,,,0.00,234.00,VWS V14.01,2013-10-17 16:06:00,
2013-10-17 10:11:00,36.4,31.7,30.04,North,-999,0.0,0.0,83,0.00,,,0.00,285.00,VWS V14.01,2013-10-17 16:11:00,
2013-10-17 10:16:00,36.6,31.6,30.04,North,-999,4.0,4.0,82,0.00,,,0.00,257.00,VWS V14.01,2013-10-17 16:16:00,
2013-10-17 10:21:00,36.9,31.9,30.04,North,-999,2.0,3.0,82,0.00,,,0.00,213.00,VWS V14.01,2013-10-17 16:21:00,
2013-10-17 10:26:00,36.9,31.6,30.04,North,-999,0.0,3.0,81,0.00,,,0.00,236.00,VWS V14.01,2013-10-17 16:26:00,
2013-10-17 10:31:00,37.1,31.8,30.04,North,-999,0.0,2.0,81,0.00,,,0.00,258.00,VWS V14.01,2013-10-17 16:31:00,
2013-10-17 10:36:00,37.3,31.7,30.04,North,-999,0.0,2.0,80,0.00,,,0.00,290.00,VWS V14.01,2013-10-17 16:36:00,
2013-10-17 10:41:00,37.4,31.8,30.04,North,-999,0.0,0.0,80,0.00,,,0.00,162.00,VWS V14.01,2013-10-17 16:41:00,
2013-10-17 10:46:00,37.5,31.6,30.04,North,-999,1.0,2.0,79,0.00,,,0.00,197.00,VWS V14.01,2013-10-17 16:46:00,
2013-10-17 10:51:00,37.5,31.6,30.04,North,-999,1.0,2.0,79,0.00,,,0.00,207.00,VWS V14.01,2013-10-17 16:51:00,
2013-10-17 10:56:00,37.5,31.6,30.04,North,-999,0.0,2.0,79,0.00,,,0.00,234.00,VWS V14.01,2013-10-17 16:56:00,
2013-10-17 11:01:00,37.7,31.5,30.04,North,-999,0.0,0.0,78,0.00,,,0.00,285.00,VWS V14.01,2013-10-17 17:01:00,
2013-10-17 11:06:00,37.9,31.7,30.04,North,-999,0.0,0.0,78,0.00,,,0.00,313.00,VWS V14.01,2013-10-17 17:06:00,
2013-10-17 11:11:00,38.3,32.0,30.04,North,-999,0.0,0.0,78,0.00,,,0.00,258.00,VWS V14.01,2013-10-17 17:11:00,
2013-10-17 11:16:00,38.6,32.0,30.03,North,-999,0.0,2.0,77,0.00,,,0.00,308.00,VWS V14.01,2013-10-17 17:16:00,
2013-10-17 11:21:00,38.9,31.7,30.03,North,-999,0.0,0.0,75,0.00,,,0.00,427.00,VWS V14.01,2013-10-17 17:21:00,
2013-10-17 11:26:00,39.2,31.6,30.03,North,-999,0.0,0.0,74,0.00,,,0.00,323.00,VWS V14.01,2013-10-17 17:26:00,
2013-10-17 11:31:00,39.2,31.6,30.03,North,-999,0.0,0.0,74,0.00,,,0.00,207.00,VWS V14.01,2013-10-17 17:31:00,
2013-10-17 11:36:00,38.9,31.3,30.03,North,-999,0.0,0.0,74,0.00,,,0.00,225.00,VWS V14.01,2013-10-17 17:36:00,
2013-10-17 11:41:00,38.8,31.2,30.03,North,-999,0.0,0.0,74,0.00,,,0.00,255.00,VWS V14.01,2013-10-17 17:41:00,
2013-10-17 11:46:00,39.1,31.5,30.03,North,-999,0.0,0.0,74,0.00,,,0.00,243.00,VWS V14.01,2013-10-17 17:46:00,
2013-10-17 11:51:00,39.4,31.8,30.03,North,-999,0.0,0.0,74,0.00,,,0.00,236.00,VWS V14.01,2013-10-17 17:51:00,
2013-10-17 11:56:00,39.5,31.6,30.03,North,-999,0.0,0.0,73,0.00,,,0.00,267.00,VWS V14.01,2013-10-17 17:56:00,
2013-10-17 12:01:00,39.7,31.8,30.03,North,-999,0.0,0.0,73,0.00,,,0.00,294.00,VWS V14.01,2013-10-17 18:01:00,
2013-10-17 12:06:00,40.0,31.4,30.03,North,-999,0.0,0.0,71,0.00,,,0.00,251.00,VWS V14.01,2013-10-17 18:06:00,
2013-10-17 12:11:00,39.6,30.6,30.03,North,-999,0.0,0.0,70,0.00,,,0.00,320.00,VWS V14.01,2013-10-17 18:11:00,
2013-10-17 12:16:00,39.5,31.2,30.03,North,-999,3.0,5.0,72,0.00,,,0.00,267.00,VWS V14.01,2013-10-17 18:16:00,
2013-10-17 12:21:00,39.2,31.0,30.03,North,-999,3.0,5.0,72,0.00,,,0.00,232.00,VWS V14.01,2013-10-17 18:21:00,
2013-10-17 12:26:00,39.2,31.3,30.03,North,-999,0.0,5.0,73,0.00,,,0.00,241.00,VWS V14.01,2013-10-17 18:26:00,
2013-10-17 12:31:00,39.5,31.6,30.03,North,-999,4.0,5.0,73,0.00,,,0.00,248.00,VWS V14.01,2013-10-17 18:31:00,
2013-10-17 12:36:00,39.5,31.2,30.03,North,-999,0.0,5.0,72,0.00,,,0.00,229.00,VWS V14.01,2013-10-17 18:36:00,
2013-10-17 12:41:00,39.5,31.6,30.03,North,-999,0.0,0.0,73,0.00,,,0.00,181.00,VWS V14.01,2013-10-17 18:41:00,
2013-10-17 12:46:00,39.6,31.7,30.02,North,-999,2.0,5.0,73,0.00,,,0.00,139.00,VWS V14.01,2013-10-17 18:46:00,
2013-10-17 12:51:00,39.4,31.1,30.02,North,-999,0.0,1.0,72,0.00,,,0.00,134.00,VWS V14.01,2013-10-17 18:51:00,
2013-10-17 12:56:00,39.3,31.4,30.02,North,-999,0.0,4.0,73,0.00,,,0.00,125.00,VWS V14.01,2013-10-17 18:56:00,
2013-10-17 13:01:00,39.1,32.2,30.02,North,-999,2.0,3.0,76,0.00,,,0.00,134.00,VWS V14.01,2013-10-17 19:01:00,
2013-10-17 13:06:00,38.9,32.0,30.02,North,-999,0.0,4.0,76,0.00,,,0.00,162.00,VWS V14.01,2013-10-17 19:06:00,
2013-10-17 13:11:00,38.7,32.1,30.02,North,-999,0.0,0.0,77,0.00,,,0.00,193.00,VWS V14.01,2013-10-17 19:11:00,
2013-10-17 13:16:00,38.9,32.3,30.02,North,-999,0.0,0.0,77,0.00,,,0.00,209.00,VWS V14.01,2013-10-17 19:16:00,
2013-10-17 13:21:00,39.2,32.6,30.02,North,-999,0.0,3.0,77,0.00,,,0.00,251.00,VWS V14.01,2013-10-17 19:21:00,
2013-10-17 13:26:00,39.3,32.7,30.02,North,-999,0.0,3.0,77,0.00,,,0.00,276.00,VWS V14.01,2013-10-17 19:26:00,
2013-10-17 13:31:00,39.2,32.6,30.01,North,-999,0.0,0.0,77,0.00,,,0.00,211.00,VWS V14.01,2013-10-17 19:31:00,
2013-10-17 13:36:00,39.1,32.5,30.01,North,-999,6.0,6.0,77,0.00,,,0.00,197.00,VWS V14.01,2013-10-17 19:36:00,
2013-10-17 13:41:00,38.4,33.4,30.01,North,-999,8.0,12.0,82,0.00,,,0.00,153.00,VWS V14.01,2013-10-17 19:41:00,
2013-10-17 13:45:00,38.2,33.5,30.01,North,-999,7.0,12.0,83,0.00,,,0.00,141.00,VWS V14.01,2013-10-17 19:45:00,
2013-10-17 13:50:00,37.8,33.4,30.01,North,-999,0.0,9.0,84,0.00,,,0.00,132.00,VWS V14.01,2013-10-17 19:50:00,
2013-10-17 13:55:00,37.6,33.5,30.01,North,-999,3.0,9.0,85,0.00,,,0.00,135.00,VWS V14.01,2013-10-17 19:55:00,
2013-10-17 14:00:00,37.5,33.7,30.01,North,-999,1.0,4.0,86,0.00,,,0.00,130.00,VWS V14.01,2013-10-17 20:00:00,
2013-10-17 14:05:00,37.5,33.4,30.01,North,-999,0.0,4.0,85,0.00,,,0.00,163.00,VWS V14.01,2013-10-17 20:05:00,
2013-10-17 14:10:00,37.4,33.3,30.01,North,-999,0.0,4.0,85,0.00,,,0.00,134.00,VWS V14.01,2013-10-17 20:10:00,
2013-10-17 14:15:00,37.5,33.7,30.01,North,-999,0.0,4.0,86,0.00,,,0.00,125.00,VWS V14.01,2013-10-17 20:15:00,
2013-10-17 14:20:00,37.5,33.1,30.01,North,-999,0.0,0.0,84,0.00,,,0.00,102.00,VWS V14.01,2013-10-17 20:20:00,
2013-10-17 14:25:00,37.3,32.9,30.01,North,-999,0.0,0.0,84,0.00,,,0.00,107.00,VWS V14.01,2013-10-17 20:25:00,
2013-10-17 14:30:00,37.3,32.9,30.01,North,-999,0.0,0.0,84,0.00,,,0.00,70.00,VWS V14.01,2013-10-17 20:30:00,
2013-10-17 14:35:00,37.3,33.2,30.01,North,-999,0.0,0.0,85,0.00,,,0.00,67.00,VWS V14.01,2013-10-17 20:35:00,
2013-10-17 14:40:00,37.3,33.2,30.01,North,-999,5.0,5.0,85,0.00,,,0.00,100.00,VWS V14.01,2013-10-17 20:40:00,
2013-10-17 14:45:00,37.2,33.4,30.01,North,-999,0.0,6.0,86,0.00,,,0.00,123.00,VWS V14.01,2013-10-17 20:45:00,
2013-10-17 14:50:00,37.1,33.6,30.01,North,-999,6.0,8.0,87,0.00,,,0.00,127.00,VWS V14.01,2013-10-17 20:50:00,
2013-10-17 14:55:00,36.9,33.7,30.01,North,-999,8.0,9.0,88,0.00,,,0.00,130.00,VWS V14.01,2013-10-17 20:55:00,
2013-10-17 15:00:00,36.7,33.8,30.01,North,-999,5.0,9.0,89,0.00,,,0.00,104.00,VWS V14.01,2013-10-17 21:00:00,
2013-10-17 15:05:00,36.5,33.8,30.01,North,-999,4.0,9.0,90,0.00,,,0.00,116.00,VWS V14.01,2013-10-17 21:05:00,
2013-10-17 15:10:00,36.5,33.6,30.01,North,-999,5.0,6.0,89,0.00,,,0.00,127.00,VWS V14.01,2013-10-17 21:10:00,
2013-10-17 15:15:00,36.6,33.7,30.01,North,-999,5.0,7.0,89,0.00,,,0.00,153.00,VWS V14.01,2013-10-17 21:15:00,
2013-10-17 15:20:00,36.7,33.5,30.01,North,-999,7.0,9.0,88,0.00,,,0.00,171.00,VWS V14.01,2013-10-17 21:20:00,
2013-10-17 15:25:00,37.0,33.8,30.01,North,-999,7.0,10.0,88,0.00,,,0.00,148.00,VWS V14.01,2013-10-17 21:25:00,
2013-10-17 15:30:00,37.2,34.0,30.01,North,-999,6.0,9.0,88,0.00,,,0.00,158.00,VWS V14.01,2013-10-17 21:30:00,
2013-10-17 15:35:00,37.2,33.7,30.01,North,-999,4.0,9.0,87,0.00,,,0.00,102.00,VWS V14.01,2013-10-17 21:35:00,
2013-10-17 15:40:00,37.2,34.0,30.01,North,-999,5.0,7.0,88,0.00,,,0.00,69.00,VWS V14.01,2013-10-17 21:40:00,
2013-10-17 15:45:00,37.2,34.0,30.01,North,-999,6.0,9.0,88,0.00,,,0.00,44.00,VWS V14.01,2013-10-17 21:45:00,
2013-10-17 15:50:00,37.1,33.9,30.01,North,-999,4.0,6.0,88,0.00,,,0.00,47.00,VWS V14.01,2013-10-17 21:50:00,
2013-10-17 15:55:00,37.0,34.1,30.01,North,-999,6.0,8.0,89,0.00,,,0.00,46.00,VWS V14.01,2013-10-17 21:55:00,
2013-10-17 16:00:00,37.0,34.1,30.00,North,-999,5.0,8.0,89,0.00,,,0.00,63.00,VWS V14.01,2013-10-17 22:00:00,
2013-10-17 16:05:00,37.0,34.1,30.00,North,-999,3.0,8.0,89,0.01,,,0.01,49.00,VWS V14.01,2013-10-17 22:05:00,
2013-10-17 16:10:00,36.9,34.2,30.00,North,-999,0.0,0.0,90,0.01,,,0.01,46.00,VWS V14.01,2013-10-17 22:10:00,
2013-10-17 16:15:00,37.1,34.4,30.00,North,-999,6.0,7.0,90,0.01,,,0.01,54.00,VWS V14.01,2013-10-17 22:15:00,
2013-10-17 16:20:00,37.4,34.7,30.00,North,-999,5.0,8.0,90,0.01,,,0.01,54.00,VWS V14.01,2013-10-17 22:20:00,
2013-10-17 16:25:00,37.5,34.6,30.00,North,-999,7.0,10.0,89,0.01,,,0.01,51.00,VWS V14.01,2013-10-17 22:25:00,
2013-10-17 16:30:00,37.5,34.6,30.00,North,-999,5.0,10.0,89,0.01,,,0.01,40.00,VWS V14.01,2013-10-17 22:30:00,
2013-10-17 16:35:00,37.4,34.5,30.00,North,-999,5.0,10.0,89,0.01,,,0.01,81.00,VWS V14.01,2013-10-17 22:35:00,
2013-10-17 16:40:00,37.5,34.8,30.00,North,-999,0.0,5.0,90,0.01,,,0.01,74.00,VWS V14.01,2013-10-17 22:40:00,
2013-10-17 16:45:00,37.6,34.7,30.00,North,-999,0.0,5.0,89,0.01,,,0.01,69.00,VWS V14.01,2013-10-17 22:45:00,
2013-10-17 16:50:00,37.6,34.7,30.00,North,-999,0.0,0.0,89,0.01,,,0.01,84.00,VWS V14.01,2013-10-17 22:50:00,
2013-10-17 16:55:00,37.8,34.9,30.00,North,-999,0.0,5.0,89,0.01,,,0.01,83.00,VWS V14.01,2013-10-17 22:55:00,
2013-10-17 17:00:00,37.9,35.0,30.00,North,-999,2.0,7.0,89,0.01,,,0.01,63.00,VWS V14.01,2013-10-17 23:00:00,
2013-10-17 17:05:00,37.8,34.6,30.00,North,-999,7.0,10.0,88,0.01,,,0.01,54.00,VWS V14.01,2013-10-17 23:05:00,
2013-10-17 17:10:00,37.8,34.9,30.00,North,-999,6.0,10.0,89,0.00,,,0.01,97.00,VWS V14.01,2013-10-17 23:10:00,
2013-10-17 17:15:00,37.9,35.0,30.00,North,-999,7.0,10.0,89,0.00,,,0.01,151.00,VWS V14.01,2013-10-17 23:15:00,
2013-10-17 17:20:00,38.0,35.0,30.01,North,-999,8.0,10.0,89,0.00,,,0.01,79.00,VWS V14.01,2013-10-17 23:20:00,
2013-10-17 17:25:00,38.0,35.0,30.01,North,-999,8.0,11.0,89,0.00,,,0.01,40.00,VWS V14.01,2013-10-17 23:25:00,
2013-10-17 17:30:00,37.8,34.9,30.01,North,-999,9.0,11.0,89,0.00,,,0.01,37.00,VWS V14.01,2013-10-17 23:30:00,
2013-10-17 17:35:00,37.6,34.7,30.01,North,-999,10.0,11.0,89,0.00,,,0.01,30.00,VWS V14.01,2013-10-17 23:35:00,
2013-10-17 17:40:00,37.5,34.6,30.01,North,-999,9.0,10.0,89,0.00,,,0.01,25.00,VWS V14.01,2013-10-17 23:40:00,
2013-10-17 17:45:00,37.5,34.6,30.01,North,-999,5.0,13.0,89,0.00,,,0.01,28.00,VWS V14.01,2013-10-17 23:45:00,
2013-10-17 17:50:00,37.5,34.6,30.01,North,-999,6.0,10.0,89,0.00,,,0.01,12.00,VWS V14.01,2013-10-17 23:50:00,
2013-10-17 17:55:00,37.3,34.4,30.01,North,-999,7.0,10.0,89,0.00,,,0.01,7.00,VWS V14.01,2013-10-17 23:55:00,
2013-10-17 18:00:00,37.0,34.3,30.01,North,-999,8.0,11.0,90,0.00,,,0.01,5.00,VWS V14.01,2013-10-18 00:00:00,
2013-10-17 18:05:00,36.8,34.2,30.01,North,-999,6.0,11.0,90,0.00,,,0.01,5.00,VWS V14.01,2013-10-18 00:05:00,
2013-10-17 18:10:00,36.6,34.0,30.01,North,-999,7.0,9.0,90,0.00,,,0.01,5.00,VWS V14.01,2013-10-18 00:10:00,
2013-10-17 18:15:00,36.6,34.2,30.02,North,-999,5.0,9.0,91,0.00,,,0.01,0.00,VWS V14.01,2013-10-18 00:15:00,
2013-10-17 18:20:00,36.6,34.2,30.01,North,-999,2.0,7.0,91,0.00,,,0.01,0.00,VWS V14.01,2013-10-18 00:20:00,
2013-10-17 18:25:00,36.6,34.2,30.01,North,-999,0.0,7.0,91,0.00,,,0.01,0.00,VWS V14.01,2013-10-18 00:25:00,
2013-10-17 18:30:00,36.5,34.1,30.01,North,-999,0.0,0.0,91,0.00,,,0.01,0.00,VWS V14.01,2013-10-18 00:30:00,
2013-10-17 18:35:00,36.5,34.1,30.01,North,-999,2.0,4.0,91,0.00,,,0.01,0.00,VWS V14.01,2013-10-18 00:35:00,
2013-10-17 18:40:00,36.4,34.0,30.02,North,-999,0.0,5.0,91,0.00,,,0.01,0.00,VWS V14.01,2013-10-18 00:40:00,
2013-10-17 18:45:00,36.4,34.0,30.02,North,-999,2.0,5.0,91,0.00,,,0.01,0.00,VWS V14.01,2013-10-18 00:45:00,
2013-10-17 18:50:00,36.4,34.0,30.02,North,-999,1.0,5.0,91,0.00,,,0.01,0.00,VWS V14.01,2013-10-18 00:50:00,
2013-10-17 18:55:00,36.4,34.3,30.02,North,-999,1.0,5.0,92,0.00,,,0.01,0.00,VWS V14.01,2013-10-18 00:55:00,
2013-10-17 19:00:00,36.4,34.3,30.02,North,-999,0.0,2.0,92,0.00,,,0.01,0.00,VWS V14.01,2013-10-18 01:00:00,
2013-10-17 19:05:00,36.3,34.2,30.01,North,-999,0.0,2.0,92,0.00,,,0.01,0.00,VWS V14.01,2013-10-18 01:05:00,
2013-10-17 19:10:00,36.3,34.2,30.01,North,-999,0.0,0.0,92,0.00,,,0.01,0.00,VWS V14.01,2013-10-18 01:10:00,
2013-10-17 19:15:00,36.2,34.1,30.01,North,-999,0.0,0.0,92,0.00,,,0.01,0.00,VWS V14.01,2013-10-18 01:15:00,
2013-10-17 19:20:00,36.2,34.1,30.01,North,-999,0.0,0.0,92,0.00,,,0.01,0.00,VWS V14.01,2013-10-18 01:20:00,
2013-10-17 19:25:00,36.2,34.1,30.01,North,-999,0.0,0.0,92,0.00,,,0.01,0.00,VWS V14.01,2013-10-18 01:25:00,
2013-10-17 19:30:00,36.1,33.7,30.01,North,-999,0.0,0.0,91,0.00,,,0.01,0.00,VWS V14.01,2013-10-18 01:30:00,
2013-10-17 19:35:00,36.0,33.6,30.02,North,-999,0.0,0.0,91,0.00,,,0.01,0.00,VWS V14.01,2013-10-18 01:35:00,
2013-10-17 19:40:00,35.9,33.8,30.02,North,-999,0.0,0.0,92,0.00,,,0.01,0.00,VWS V14.01,2013-10-18 01:40:00,
2013-10-17 19:45:00,35.3,32.9,30.02,North,-999,0.0,0.0,91,0.00,,,0.01,0.00,VWS V14.01,2013-10-18 01:45:00,
2013-10-17 19:50:00,34.9,32.8,30.02,North,-999,2.0,6.0,92,0.00,,,0.01,0.00,VWS V14.01,2013-10-18 01:50:00,
2013-10-17 19:55:00,34.9,33.1,30.02,North,-999,5.0,9.0,93,0.00,,,0.01,0.00,VWS V14.01,2013-10-18 01:55:00,
2013-10-17 20:00:00,34.7,32.6,30.01,North,-999,6.0,7.0,92,0.00,,,0.01,0.00,VWS V14.01,2013-10-18 02:00:00,
2013-10-17 20:05:00,34.5,32.4,30.01,North,-999,6.0,7.0,92,0.00,,,0.01,0.00,VWS V14.01,2013-10-18 02:05:00,
2013-10-17 20:10:00,34.3,32.5,30.01,North,-999,2.0,5.0,93,0.00,,,0.01,0.00,VWS V14.01,2013-10-18 02:10:00,
2013-10-17 20:15:00,34.3,32.5,30.01,North,-999,2.0,5.0,93,0.00,,,0.01,0.00,VWS V14.01,2013-10-18 02:15:00,
2013-10-17 20:20:00,34.1,32.3,30.01,North,-999,2.0,3.0,93,0.00,,,0.01,0.00,VWS V14.01,2013-10-18 02:20:00,
2013-10-17 20:25:00,34.1,32.3,30.01,North,-999,5.0,7.0,93,0.00,,,0.01,0.00,VWS V14.01,2013-10-18 02:25:00,
2013-10-17 20:30:00,34.0,32.2,30.01,North,-999,1.0,5.0,93,0.00,,,0.01,0.00,VWS V14.01,2013-10-18 02:30:00,
2013-10-17 20:35:00,33.8,32.3,30.02,North,-999,5.0,6.0,94,0.00,,,0.01,0.00,VWS V14.01,2013-10-18 02:35:00,
2013-10-17 20:40:00,33.9,32.4,30.02,North,-999,3.0,6.0,94,0.00,,,0.01,0.00,VWS V14.01,2013-10-18 02:40:00,
2013-10-17 20:45:00,34.0,32.5,30.02,North,-999,6.0,7.0,94,0.00,,,0.01,0.00,VWS V14.01,2013-10-18 02:45:00,
2013-10-17 20:50:00,34.0,32.2,30.02,North,-999,3.0,7.0,93,0.00,,,0.01,0.00,VWS V14.01,2013-10-18 02:50:00,
2013-10-17 20:54:00,33.8,32.0,30.02,North,-999,6.0,7.0,93,0.00,,,0.01,0.00,VWS V14.01,2013-10-18 02:54:00,
2013-10-17 20:59:00,33.7,31.9,30.02,North,-999,6.0,7.0,93,0.00,,,0.01,0.00,VWS V14.01,2013-10-18 02:59:00,
2013-10-17 21:04:00,33.5,31.7,30.02,North,-999,1.0,7.0,93,0.00,,,0.01,0.00,VWS V14.01,2013-10-18 03:04:00,
2013-10-17 21:09:00,33.7,32.2,30.02,North,-999,6.0,6.0,94,0.00,,,0.01,0.00,VWS V14.01,2013-10-18 03:09:00,
2013-10-17 21:14:00,34.1,32.6,30.02,North,-999,5.0,7.0,94,0.00,,,0.01,0.00,VWS V14.01,2013-10-18 03:14:00,
2013-10-17 21:19:00,34.3,32.5,30.03,North,-999,5.0,6.0,93,0.00,,,0.01,0.00,VWS V14.01,2013-10-18 03:19:00,
2013-10-17 21:24:00,34.4,32.6,30.03,North,-999,1.0,6.0,93,0.00,,,0.01,0.00,VWS V14.01,2013-10-18 03:24:00,
2013-10-17 21:29:00,34.3,32.5,30.03,North,-999,0.0,1.0,93,0.00,,,0.01,0.00,VWS V14.01,2013-10-18 03:29:00,
2013-10-17 21:34:00,34.4,32.6,30.03,North,-999,0.0,1.0,93,0.00,,,0.01,0.00,VWS V14.01,2013-10-18 03:34:00,
2013-10-17 21:39:00,34.5,32.7,30.03,North,-999,0.0,0.0,93,0.00,,,0.01,0.00,VWS V14.01,2013-10-18 03:39:00,
2013-10-17 21:44:00,34.6,32.8,30.03,North,-999,0.0,6.0,93,0.00,,,0.01,0.00,VWS V14.01,2013-10-18 03:44:00,
2013-10-17 21:49:00,34.7,32.9,30.04,North,-999,4.0,5.0,93,0.00,,,0.01,0.00,VWS V14.01,2013-10-18 03:49:00,
2013-10-17 21:54:00,34.8,33.0,30.04,North,-999,2.0,5.0,93,0.00,,,0.01,0.00,VWS V14.01,2013-10-18 03:54:00,
2013-10-17 21:59:00,34.8,33.0,30.04,North,-999,2.0,3.0,93,0.00,,,0.01,0.00,VWS V14.01,2013-10-18 03:59:00,
2013-10-17 22:01:00,34.8,33.0,30.04,North,-999,1.0,3.0,93,0.00,,,0.01,0.00,VWS V14.01,2013-10-18 04:01:00,
2013-10-17 22:06:00,35.1,33.3,30.04,North,-999,1.0,6.0,93,0.00,,,0.01,0.00,VWS V14.01,2013-10-18 04:06:00,
2013-10-17 22:11:00,35.6,33.2,30.04,North,-999,1.0,6.0,91,0.00,,,0.01,0.00,VWS V14.01,2013-10-18 04:11:00,
2013-10-17 22:16:00,36.1,33.5,30.03,North,-999,2.0,12.0,90,0.00,,,0.01,0.00,VWS V14.01,2013-10-18 04:16:00,
2013-10-17 22:21:00,36.3,33.4,30.03,North,-999,1.0,6.0,89,0.00,,,0.01,0.00,VWS V14.01,2013-10-18 04:21:00,
2013-10-17 22:26:00,36.5,33.3,30.03,North,-999,1.0,6.0,88,0.00,,,0.01,0.00,VWS V14.01,2013-10-18 04:26:00,
2013-10-17 22:31:00,36.4,33.2,30.04,North,-999,3.0,5.0,88,0.00,,,0.01,0.00,VWS V14.01,2013-10-18 04:31:00,
2013-10-17 22:36:00,36.2,33.0,30.05,North,-999,1.0,5.0,88,0.00,,,0.01,0.00,VWS V14.01,2013-10-18 04:36:00,
2013-10-17 22:41:00,36.1,32.9,30.05,North,-999,13.0,14.0,88,0.00,,,0.01,0.00,VWS V14.01,2013-10-18 04:41:00,
2013-10-17 22:46:00,36.3,32.8,30.05,North,-999,21.0,27.0,87,0.00,,,0.01,0.00,VWS V14.01,2013-10-18 04:46:00,
2013-10-17 22:51:00,36.0,32.8,30.05,North,-999,20.0,30.0,88,0.00,,,0.01,0.00,VWS V14.01,2013-10-18 04:51:00,
2013-10-17 22:56:00,35.7,32.8,30.06,North,-999,30.0,39.0,89,0.00,,,0.01,0.00,VWS V14.01,2013-10-18 04:56:00,
2013-10-17 23:01:00,34.6,31.7,30.06,North,-999,23.0,33.0,89,0.00,,,0.01,0.00,VWS V14.01,2013-10-18 05:01:00,
2013-10-17 23:06:00,34.4,31.5,30.06,North,-999,20.0,33.0,89,0.00,,,0.01,0.00,VWS V14.01,2013-10-18 05:06:00,
2013-10-17 23:11:00,34.6,31.4,30.07,North,-999,25.0,33.0,88,0.00,,,0.01,0.00,VWS V14.01,2013-10-18 05:11:00,
2013-10-17 23:16:00,33.8,31.5,30.06,North,-999,15.0,33.0,91,0.00,,,0.01,0.00,VWS V14.01,2013-10-18 05:16:00,
2013-10-17 23:21:00,33.6,31.5,30.06,North,-999,18.0,21.0,92,0.00,,,0.01,0.00,VWS V14.01,2013-10-18 05:21:00,
2013-10-17 23:26:00,33.9,31.6,30.06,North,-999,18.0,24.0,91,0.00,,,0.01,0.00,VWS V14.01,2013-10-18 05:26:00,
2013-10-17 23:31:00,34.5,31.3,30.06,North,-999,15.0,25.0,88,0.00,,,0.01,0.00,VWS V14.01,2013-10-18 05:31:00,
2013-10-17 23:36:00,34.8,31.0,30.05,North,-999,15.0,25.0,86,0.00,,,0.01,0.00,VWS V14.01,2013-10-18 05:36:00,
2013-10-17 23:41:00,34.9,30.6,30.05,North,-999,20.0,30.0,84,0.00,,,0.01,0.00,VWS V14.01,2013-10-18 05:41:00,
2013-10-17 23:46:00,35.0,30.7,30.05,North,-999,21.0,30.0,84,0.00,,,0.01,0.00,VWS V14.01,2013-10-18 05:46:00,
2013-10-17 23:51:00,35.0,30.7,30.05,North,-999,15.0,24.0,84,0.00,,,0.01,0.00,VWS V14.01,2013-10-18 05:51:00,
2013-10-17 23:56:00,35.0,30.4,30.05,North,-999,15.0,25.0,83,0.00,,,0.01,0.00,VWS V14.01,2013-10-18 05:56:00,